TimeCST,TemperatureF,Dew PointF,Humidity,Sea Level PressureIn,VisibilityMPH,Wind Direction,Wind SpeedMPH,Gust SpeedMPH,PrecipitationIn,Events,Conditions,WindDirDegrees,DateUTC
12:10 AM,32.0,19.4,60,29.79,10.0,South,10.4,-,N/A,,Overcast,180,2012-12-06 06:10:00
12:29 AM,32.0,19.4,60,29.77,10.0,South,10.4,-,N/A,,Overcast,170,2012-12-06 06:29:00
12:49 AM,32.0,19.4,60,29.76,10.0,South,6.9,-,N/A,,Overcast,180,2012-12-06 06:49:00
1:10 AM,33.8,21.2,60,29.75,10.0,South,8.1,-,N/A,,Overcast,180,2012-12-06 07:10:00
1:29 AM,-9999,-9999,N/A,-9999,10.0,South,9.2,-,N/A,,Overcast,190,2012-12-06 07:29:00
1:49 AM,33.8,23.0,65,29.75,10.0,South,8.1,-,N/A,,Overcast,190,2012-12-06 07:49:00
2:10 AM,33.8,23.0,65,29.75,10.0,SSW,5.8,-,N/A,,Overcast,200,2012-12-06 08:10:00
2:28 AM,33.8,23.0,65,29.74,10.0,South,8.1,-,N/A,Snow,Light Snow,190,2012-12-06 08:28:00
2:50 AM,35.6,26.6,70,29.73,10.0,South,10.4,-,N/A,,Overcast,180,2012-12-06 08:50:00
3:09 AM,33.8,26.6,75,29.70,10.0,South,10.4,16.1,N/A,Rain,Light Rain,170,2012-12-06 09:09:00
3:30 AM,33.8,28.4,81,29.67,10.0,South,10.4,17.3,N/A,,Overcast,190,2012-12-06 09:30:00
3:50 AM,35.6,28.4,75,29.69,10.0,SW,8.1,-,N/A,,Overcast,220,2012-12-06 09:50:00
4:09 AM,35.6,30.2,81,29.67,10.0,SSW,12.7,-,N/A,,Mostly Cloudy,200,2012-12-06 10:09:00
4:30 AM,35.6,30.2,81,29.67,10.0,SSW,10.4,-,N/A,,Mostly Cloudy,200,2012-12-06 10:30:00
4:50 AM,35.6,30.2,81,29.65,10.0,South,11.5,16.1,N/A,,Scattered Clouds,190,2012-12-06 10:50:00
5:09 AM,35.6,30.2,81,29.66,10.0,SSW,10.4,-,N/A,,Scattered Clouds,210,2012-12-06 11:09:00
5:30 AM,35.6,30.2,81,29.65,10.0,SSW,9.2,-,N/A,,Mostly Cloudy,210,2012-12-06 11:30:00
5:50 AM,35.6,28.4,75,29.65,10.0,SSW,10.4,-,N/A,,Scattered Clouds,210,2012-12-06 11:50:00
6:09 AM,35.6,28.4,75,29.65,10.0,SW,9.2,-,N/A,,Scattered Clouds,220,2012-12-06 12:09:00
6:30 AM,33.8,28.4,81,29.66,10.0,SW,8.1,-,N/A,,Clear,220,2012-12-06 12:30:00
6:50 AM,33.8,28.4,81,29.65,10.0,SW,8.1,-,N/A,,Clear,230,2012-12-06 12:50:00
7:09 AM,33.8,28.4,81,29.65,10.0,SW,8.1,-,N/A,,Clear,220,2012-12-06 13:09:00
7:30 AM,32.0,26.6,80,29.66,10.0,SW,6.9,-,N/A,,Clear,230,2012-12-06 13:30:00
7:50 AM,32.0,28.4,87,29.66,10.0,SW,6.9,-,N/A,,Clear,230,2012-12-06 13:50:00
8:09 AM,32.0,28.4,87,29.66,10.0,WSW,9.2,-,N/A,,Clear,240,2012-12-06 14:09:00
8:30 AM,32.0,28.4,87,29.66,10.0,WSW,10.4,-,N/A,,Clear,240,2012-12-06 14:30:00
8:50 AM,32.0,28.4,87,29.67,10.0,WSW,9.2,-,N/A,,Scattered Clouds,240,2012-12-06 14:50:00
9:09 AM,33.8,30.2,87,29.68,10.0,West,9.2,16.1,N/A,,Mostly Cloudy,260,2012-12-06 15:09:00
9:30 AM,33.8,30.2,87,29.69,10.0,West,13.8,18.4,N/A,,Overcast,260,2012-12-06 15:30:00
9:50 AM,33.8,30.2,87,29.68,10.0,WSW,9.2,-,N/A,,Overcast,250,2012-12-06 15:50:00
10:09 AM,35.6,30.2,81,29.70,10.0,West,10.4,-,N/A,,Overcast,260,2012-12-06 16:09:00
10:30 AM,33.8,28.4,81,29.70,10.0,West,10.4,-,N/A,,Overcast,270,2012-12-06 16:30:00
10:50 AM,33.8,28.4,81,29.70,10.0,West,13.8,19.6,N/A,,Overcast,270,2012-12-06 16:50:00
11:09 AM,33.8,28.4,81,29.70,10.0,West,11.5,17.3,N/A,,Overcast,280,2012-12-06 17:09:00
11:30 AM,33.8,30.2,87,29.71,10.0,West,13.8,18.4,N/A,,Overcast,280,2012-12-06 17:30:00
11:50 AM,33.8,30.2,87,29.71,10.0,West,11.5,19.6,N/A,,Overcast,260,2012-12-06 17:50:00
12:09 PM,33.8,28.4,81,29.71,10.0,West,11.5,21.9,N/A,,Overcast,270,2012-12-06 18:09:00
12:30 PM,32.0,28.4,87,29.72,10.0,West,10.4,18.4,N/A,,Overcast,280,2012-12-06 18:30:00
12:50 PM,32.0,26.6,80,29.72,10.0,West,16.1,24.2,N/A,,Overcast,280,2012-12-06 18:50:00
1:09 PM,32.0,26.6,80,29.73,10.0,West,13.8,21.9,N/A,,Overcast,280,2012-12-06 19:09:00
1:30 PM,32.0,26.6,80,29.73,10.0,WNW,13.8,17.3,N/A,,Overcast,290,2012-12-06 19:30:00
1:49 PM,32.0,26.6,80,29.75,10.0,WNW,16.1,21.9,N/A,,Overcast,290,2012-12-06 19:49:00
2:09 PM,32.0,26.6,80,29.76,10.0,West,15.0,20.7,N/A,,Overcast,280,2012-12-06 20:09:00
2:29 PM,32.0,26.6,80,29.77,10.0,West,11.5,24.2,N/A,,Overcast,280,2012-12-06 20:29:00
2:49 PM,30.2,23.0,75,29.78,10.0,WNW,12.7,23.0,N/A,,Overcast,290,2012-12-06 20:49:00
3:10 PM,28.4,21.2,74,29.79,10.0,WNW,18.4,21.9,N/A,,Overcast,290,2012-12-06 21:10:00
3:29 PM,28.4,21.2,74,29.80,10.0,WNW,15.0,19.6,N/A,,Overcast,290,2012-12-06 21:29:00
3:49 PM,26.6,21.2,80,29.81,10.0,West,17.3,20.7,N/A,,Overcast,270,2012-12-06 21:49:00
4:10 PM,26.6,19.4,74,29.83,10.0,West,16.1,20.7,N/A,,Overcast,270,2012-12-06 22:10:00
4:29 PM,26.6,19.4,74,29.84,10.0,WNW,12.7,19.6,N/A,,Overcast,290,2012-12-06 22:29:00
4:49 PM,26.6,19.4,74,29.84,10.0,West,11.5,-,N/A,,Overcast,260,2012-12-06 22:49:00
5:10 PM,26.6,19.4,74,29.84,10.0,West,10.4,-,N/A,,Overcast,270,2012-12-06 23:10:00
5:29 PM,26.6,19.4,74,29.85,10.0,West,11.5,16.1,N/A,,Overcast,270,2012-12-06 23:29:00
5:49 PM,26.6,19.4,74,29.85,10.0,WNW,9.2,17.3,N/A,,Overcast,290,2012-12-06 23:49:00
6:10 PM,26.6,19.4,74,29.86,10.0,WNW,12.7,20.7,N/A,,Overcast,290,2012-12-07 00:10:00
6:29 PM,24.8,17.6,74,29.87,10.0,West,12.7,19.6,N/A,,Overcast,280,2012-12-07 00:29:00
6:49 PM,24.8,17.6,74,29.87,10.0,West,6.9,-,N/A,,Overcast,270,2012-12-07 00:49:00
7:10 PM,24.8,17.6,74,29.88,10.0,West,12.7,19.6,N/A,,Overcast,270,2012-12-07 01:10:00
7:29 PM,24.8,17.6,74,29.88,10.0,West,13.8,18.4,N/A,,Overcast,280,2012-12-07 01:29:00
7:49 PM,24.8,19.4,80,29.88,10.0,West,15.0,23.0,N/A,,Overcast,280,2012-12-07 01:49:00
8:29 PM,24.8,19.4,80,29.89,10.0,WNW,15.0,20.7,N/A,,Overcast,290,2012-12-07 02:29:00
8:50 PM,24.8,19.4,80,29.89,10.0,West,9.2,-,N/A,,Overcast,280,2012-12-07 02:50:00
9:09 PM,24.8,19.4,80,29.89,10.0,West,9.2,-,N/A,,Overcast,280,2012-12-07 03:09:00
9:29 PM,24.8,19.4,80,29.88,10.0,West,5.8,9.2,N/A,,Overcast,280,2012-12-07 03:29:00
9:50 PM,26.6,19.4,74,29.88,10.0,West,8.1,-,N/A,,Overcast,280,2012-12-07 03:50:00
10:09 PM,24.8,19.4,80,29.89,10.0,West,6.9,-,N/A,,Overcast,270,2012-12-07 04:09:00
10:30 PM,24.8,19.4,80,29.89,10.0,West,13.8,18.4,N/A,,Overcast,280,2012-12-07 04:30:00
10:50 PM,24.8,17.6,74,29.90,10.0,WNW,11.5,23.0,N/A,,Overcast,300,2012-12-07 04:50:00
11:09 PM,24.8,17.6,74,29.91,10.0,West,10.4,17.3,N/A,,Overcast,280,2012-12-07 05:09:00
11:29 PM,23.0,17.6,80,29.91,10.0,WNW,6.9,-,N/A,,Overcast,290,2012-12-07 05:29:00
11:49 PM,24.8,17.6,74,29.92,10.0,West,10.4,-,N/A,,Overcast,280,2012-12-07 05:49:00